Location: Innsbruck
(47.2657°N, 11.3914°E)
Time: 02:14:24
(UTC+01:00)

FALCONSAT 3 - Pass Details

Date: 04 December 2021
Orbit: 431 x 434 km, 35.4° (Epoch: 23 January)

Event Time Altitude Azimuth Distance (km) Brightness Sun altitude
Exits shadow 06:16:58 - 220° (SW) 2,126 ? -14.2°
Reaches altitude 10° 06:19:40 10° 189° (S) 1,523 ? -13.7°
Maximum altitude 06:20:38 11° 172° (S) 1,468 ? -13.6°
Drops below altitude 10° 06:21:37 10° 156° (SSE) 1,525 ? -13.4°
Sets 06:25:10 0° 118° (ESE) 2,396 ? -12.8°
